Time,TemperatureF,DewpointF,PressureIn,WindDirection,WindDirectionDegrees,WindSpeedMPH,WindSpeedGustMPH,Humidity,HourlyPrecipIn,Conditions,Clouds,dailyrainin,SoftwareType,DateUTC
2013-05-19 00:00:00,45.6,35.6,29.60,ENE,70,0.0,8.0,68,0.00,,,0.00,Wunderground v.1.15,2013-05-19 06:00:00,
2013-05-19 00:05:00,45.4,35.8,29.60,ENE,70,0.0,8.0,69,0.00,,,0.00,Wunderground v.1.15,2013-05-19 06:05:00,
2013-05-19 00:15:00,44.8,35.2,29.60,ENE,70,0.0,8.0,69,0.00,,,0.00,Wunderground v.1.15,2013-05-19 06:15:00,
2013-05-19 00:24:00,44.1,34.9,29.61,ENE,70,0.0,8.0,70,0.00,,,0.00,Wunderground v.1.15,2013-05-19 06:24:00,
2013-05-19 00:35:00,43.5,35.1,29.61,ENE,70,1.0,8.0,72,0.00,,,0.00,Wunderground v.1.15,2013-05-19 06:35:00,
2013-05-19 00:45:00,43.1,35.0,29.61,ENE,70,0.0,8.0,73,0.00,,,0.00,Wunderground v.1.15,2013-05-19 06:45:00,
2013-05-19 00:54:00,43.0,34.9,29.60,ENE,71,0.0,8.0,73,0.00,,,0.00,Wunderground v.1.15,2013-05-19 06:54:00,
2013-05-19 01:05:00,42.7,35.0,29.60,ENE,75,1.0,8.0,74,0.00,,,0.00,Wunderground v.1.15,2013-05-19 07:05:00,
2013-05-19 01:15:00,43.1,35.0,29.60,ESE,103,0.0,8.0,73,0.00,,,0.00,Wunderground v.1.15,2013-05-19 07:15:00,
2013-05-19 01:24:00,43.4,35.0,29.60,ESE,103,0.0,8.0,72,0.00,,,0.00,Wunderground v.1.15,2013-05-19 07:24:00,
2013-05-19 01:30:00,43.5,35.1,29.60,ESE,103,0.0,8.0,72,0.00,,,0.00,Wunderground v.1.15,2013-05-19 07:30:00,
2013-05-19 01:40:00,43.8,35.0,29.60,East,98,1.0,1.0,71,0.00,,,0.00,Wunderground v.1.15,2013-05-19 07:40:00,
2013-05-19 01:49:00,44.0,34.8,29.60,East,98,1.0,8.0,70,0.00,,,0.00,Wunderground v.1.15,2013-05-19 07:49:00,
2013-05-19 01:54:00,44.0,34.8,29.60,East,98,1.0,8.0,70,0.00,,,0.00,Wunderground v.1.15,2013-05-19 07:54:00,
2013-05-19 02:05:00,44.0,34.8,29.60,East,98,0.0,8.0,70,0.00,,,0.00,Wunderground v.1.15,2013-05-19 08:05:00,
2013-05-19 02:15:00,43.7,34.9,29.61,East,98,0.0,8.0,71,0.00,,,0.00,Wunderground v.1.15,2013-05-19 08:15:00,
2013-05-19 02:25:00,42.9,34.5,29.61,East,98,0.0,8.0,72,0.00,,,0.00,Wunderground v.1.15,2013-05-19 08:25:00,
2013-05-19 02:30:00,42.6,34.2,29.60,East,98,0.0,8.0,72,0.00,,,0.00,Wunderground v.1.15,2013-05-19 08:30:00,
2013-05-19 02:35:00,42.2,34.2,29.60,East,98,0.0,8.0,73,0.00,,,0.00,Wunderground v.1.15,2013-05-19 08:35:00,
2013-05-19 02:45:00,41.3,33.6,29.60,East,98,0.0,8.0,74,0.00,,,0.00,Wunderground v.1.15,2013-05-19 08:45:00,
2013-05-19 02:55:00,40.1,33.1,29.60,East,98,1.0,8.0,76,0.00,,,0.00,Wunderground v.1.15,2013-05-19 08:55:00,
2013-05-19 03:00:00,39.7,33.1,29.60,East,98,1.0,8.0,77,0.00,,,0.00,Wunderground v.1.15,2013-05-19 09:00:00,
2013-05-19 03:09:00,39.2,32.9,29.60,East,98,0.0,8.0,78,0.00,,,0.00,Wunderground v.1.15,2013-05-19 09:09:00,
2013-05-19 03:20:00,39.2,32.9,29.60,East,98,0.0,8.0,78,0.00,,,0.00,Wunderground v.1.15,2013-05-19 09:20:00,
2013-05-19 03:30:00,39.3,33.3,29.60,East,96,1.0,8.0,79,0.00,,,0.00,Wunderground v.1.15,2013-05-19 09:30:00,
2013-05-19 03:35:00,39.4,33.4,29.60,East,96,1.0,8.0,79,0.00,,,0.00,Wunderground v.1.15,2013-05-19 09:35:00,
2013-05-19 03:39:00,39.4,33.4,29.60,East,96,1.0,8.0,79,0.00,,,0.00,Wunderground v.1.15,2013-05-19 09:39:00,
2013-05-19 03:50:00,39.7,33.7,29.59,East,96,1.0,8.0,79,0.00,,,0.00,Wunderground v.1.15,2013-05-19 09:50:00,
2013-05-19 04:00:00,39.9,33.9,29.59,East,96,1.0,8.0,79,0.00,,,0.00,Wunderground v.1.15,2013-05-19 10:00:00,
2013-05-19 04:05:00,40.1,34.1,29.59,East,96,1.0,8.0,79,0.00,,,0.00,Wunderground v.1.15,2013-05-19 10:05:00,
2013-05-19 04:10:00,40.2,33.9,29.59,East,96,1.0,8.0,78,0.00,,,0.00,Wunderground v.1.15,2013-05-19 10:10:00,
2013-05-19 04:14:00,40.4,34.1,29.59,East,96,1.0,8.0,78,0.00,,,0.00,Wunderground v.1.15,2013-05-19 10:14:00,
2013-05-19 04:25:00,40.7,34.4,29.58,East,96,1.0,8.0,78,0.00,,,0.00,Wunderground v.1.15,2013-05-19 10:25:00,
2013-05-19 04:30:00,40.8,34.5,29.58,East,96,0.0,8.0,78,0.00,,,0.00,Wunderground v.1.15,2013-05-19 10:30:00,
2013-05-19 04:40:00,40.9,34.2,29.58,East,96,0.0,8.0,77,0.00,,,0.00,Wunderground v.1.15,2013-05-19 10:40:00,
2013-05-19 04:49:00,40.9,34.2,29.58,East,96,0.0,8.0,77,0.00,,,0.00,Wunderground v.1.15,2013-05-19 10:49:00,
2013-05-19 04:55:00,40.9,34.2,29.57,East,96,0.0,8.0,77,0.00,,,0.00,Wunderground v.1.15,2013-05-19 10:55:00,
2013-05-19 05:00:00,40.8,34.1,29.57,East,96,0.0,8.0,77,0.00,,,0.00,Wunderground v.1.15,2013-05-19 11:00:00,
2013-05-19 05:10:00,40.5,33.5,29.58,East,96,0.0,8.0,76,0.00,,,0.00,Wunderground v.1.15,2013-05-19 11:10:00,
2013-05-19 05:15:00,40.2,33.2,29.57,East,96,0.0,8.0,76,0.00,,,0.00,Wunderground v.1.15,2013-05-19 11:15:00,
2013-05-19 05:24:00,39.4,32.8,29.57,East,96,0.0,8.0,77,0.00,,,0.00,Wunderground v.1.15,2013-05-19 11:24:00,
2013-05-19 05:35:00,38.4,32.5,29.57,East,96,1.0,8.0,79,0.00,,,0.00,Wunderground v.1.15,2013-05-19 11:35:00,
2013-05-19 05:40:00,38.2,32.6,29.57,East,96,1.0,1.0,80,0.00,,,0.00,Wunderground v.1.15,2013-05-19 11:40:00,
2013-05-19 05:50:00,38.1,32.5,29.58,East,96,0.0,8.0,80,0.00,,,0.00,Wunderground v.1.15,2013-05-19 11:50:00,
2013-05-19 06:00:00,38.3,32.7,29.58,East,96,0.0,8.0,80,0.00,,,0.00,Wunderground v.1.15,2013-05-19 12:00:00,
2013-05-19 06:10:00,38.7,33.1,29.58,East,96,1.0,8.0,80,0.00,,,0.00,Wunderground v.1.15,2013-05-19 12:10:00,
2013-05-19 06:20:00,38.8,33.5,29.58,East,96,1.0,8.0,81,0.00,,,0.00,Wunderground v.1.15,2013-05-19 12:20:00,
2013-05-19 06:30:00,39.2,33.9,29.58,East,96,1.0,8.0,81,0.00,,,0.00,Wunderground v.1.15,2013-05-19 12:30:00,
2013-05-19 06:35:00,39.6,34.2,29.58,East,96,1.0,8.0,81,0.00,,,0.00,Wunderground v.1.15,2013-05-19 12:35:00,
2013-05-19 06:40:00,40.0,34.0,29.58,East,96,1.0,8.0,79,0.00,,,0.00,Wunderground v.1.15,2013-05-19 12:40:00,
2013-05-19 06:45:00,40.5,34.5,29.58,East,96,1.0,8.0,79,0.00,,,0.00,Wunderground v.1.15,2013-05-19 12:45:00,
2013-05-19 06:50:00,40.9,34.9,29.58,East,96,0.0,8.0,79,0.00,,,0.00,Wunderground v.1.15,2013-05-19 12:50:00,
2013-05-19 06:55:00,41.4,34.7,29.58,East,96,0.0,8.0,77,0.00,,,0.00,Wunderground v.1.15,2013-05-19 12:55:00,
2013-05-19 07:00:00,41.9,34.9,29.59,East,96,0.0,0.0,76,0.00,,,0.00,Wunderground v.1.15,2013-05-19 13:00:00,
2013-05-19 07:10:00,42.6,35.2,29.59,East,96,0.0,2.0,75,0.00,,,0.00,Wunderground v.1.15,2013-05-19 13:10:00,
2013-05-19 07:15:00,42.8,35.4,29.59,East,96,0.0,2.0,75,0.00,,,0.00,Wunderground v.1.15,2013-05-19 13:15:00,
2013-05-19 07:20:00,42.9,36.2,29.59,East,96,0.0,2.0,77,0.00,,,0.00,Wunderground v.1.15,2013-05-19 13:20:00,
2013-05-19 07:29:00,43.0,36.6,29.59,East,96,0.0,2.0,78,0.00,,,0.00,Wunderground v.1.15,2013-05-19 13:29:00,
2013-05-19 07:35:00,42.9,36.5,29.59,East,96,0.0,2.0,78,0.00,,,0.00,Wunderground v.1.15,2013-05-19 13:35:00,
2013-05-19 07:40:00,43.0,36.9,29.59,East,96,0.0,2.0,79,0.00,,,0.00,Wunderground v.1.15,2013-05-19 13:40:00,
2013-05-19 07:50:00,43.7,37.3,29.59,East,96,0.0,2.0,78,0.00,,,0.00,Wunderground v.1.15,2013-05-19 13:50:00,
2013-05-19 08:00:00,45.2,38.4,29.59,East,96,0.0,2.0,77,0.00,,,0.00,Wunderground v.1.15,2013-05-19 14:00:00,
2013-05-19 08:09:00,46.8,37.5,29.59,East,96,0.0,2.0,70,0.00,,,0.00,Wunderground v.1.15,2013-05-19 14:09:00,
2013-05-19 08:15:00,48.1,35.7,29.59,East,85,0.0,2.0,62,0.00,,,0.00,Wunderground v.1.15,2013-05-19 14:15:00,
2013-05-19 08:20:00,49.1,37.4,29.59,WSW,240,0.0,3.0,64,0.00,,,0.00,Wunderground v.1.15,2013-05-19 14:20:00,
2013-05-19 08:30:00,50.0,34.0,29.58,WSW,243,1.0,2.0,54,0.00,,,0.00,Wunderground v.1.15,2013-05-19 14:30:00,
2013-05-19 08:39:00,51.7,35.1,29.58,East,91,0.0,2.0,53,0.00,,,0.00,Wunderground v.1.15,2013-05-19 14:39:00,
2013-05-19 08:45:00,52.0,33.9,29.58,WSW,240,1.0,3.0,50,0.00,,,0.00,Wunderground v.1.15,2013-05-19 14:45:00,
2013-05-19 08:50:00,51.9,33.3,29.58,West,260,2.0,2.0,49,0.00,,,0.00,Wunderground v.1.15,2013-05-19 14:50:00,
2013-05-19 09:00:00,52.2,35.1,29.58,WSW,248,1.0,4.0,52,0.00,,,0.00,Wunderground v.1.15,2013-05-19 15:00:00,
2013-05-19 09:10:00,51.4,33.4,29.58,SW,234,3.0,3.0,50,0.00,,,0.00,Wunderground v.1.15,2013-05-19 15:10:00,
2013-05-19 09:15:00,51.8,33.2,29.58,NNE,24,2.0,3.0,49,0.00,,,0.00,Wunderground v.1.15,2013-05-19 15:15:00,
2013-05-19 09:24:00,53.2,33.5,29.58,East,80,2.0,4.0,47,0.00,,,0.00,Wunderground v.1.15,2013-05-19 15:24:00,
2013-05-19 09:30:00,53.8,33.5,29.58,ENE,59,2.0,5.0,46,0.00,,,0.00,Wunderground v.1.15,2013-05-19 15:30:00,
2013-05-19 09:40:00,54.5,32.4,29.57,NW,306,2.0,3.0,43,0.00,,,0.00,Wunderground v.1.15,2013-05-19 15:40:00,
2013-05-19 09:49:00,55.0,32.3,29.58,North,360,3.0,3.0,42,0.00,,,0.00,Wunderground v.1.15,2013-05-19 15:49:00,
2013-05-19 09:55:00,55.2,33.1,29.57,WSW,246,2.0,4.0,43,0.00,,,0.00,Wunderground v.1.15,2013-05-19 15:55:00,
2013-05-19 10:00:00,55.7,33.5,29.57,West,277,2.0,6.0,43,0.00,,,0.00,Wunderground v.1.15,2013-05-19 16:00:00,
2013-05-19 10:10:00,55.5,31.5,29.57,NNW,327,3.0,3.0,40,0.00,,,0.00,Wunderground v.1.15,2013-05-19 16:10:00,
2013-05-19 10:15:00,55.6,32.2,29.58,ENE,74,2.0,3.0,41,0.00,,,0.00,Wunderground v.1.15,2013-05-19 16:15:00,
2013-05-19 10:25:00,55.6,31.0,29.57,ESE,116,3.0,4.0,39,0.00,,,0.00,Wunderground v.1.15,2013-05-19 16:25:00,
2013-05-19 10:34:00,55.0,31.7,29.57,WNW,289,2.0,3.0,41,0.00,,,0.00,Wunderground v.1.15,2013-05-19 16:34:00,
2013-05-19 10:40:00,55.4,30.2,29.57,SSW,202,2.0,2.0,38,0.00,,,0.00,Wunderground v.1.15,2013-05-19 16:40:00,
2013-05-19 10:45:00,55.4,28.9,29.57,WSW,252,3.0,6.0,36,0.00,,,0.00,Wunderground v.1.15,2013-05-19 16:45:00,
2013-05-19 10:55:00,55.4,30.2,29.56,NNW,340,3.0,4.0,38,0.00,,,0.00,Wunderground v.1.15,2013-05-19 16:55:00,
2013-05-19 11:04:00,56.8,31.4,29.56,NW,322,2.0,2.0,38,0.00,,,0.00,Wunderground v.1.15,2013-05-19 17:04:00,
2013-05-19 11:15:00,57.1,29.0,29.56,West,269,3.0,3.0,34,0.00,,,0.00,Wunderground v.1.15,2013-05-19 17:15:00,
2013-05-19 11:25:00,54.8,30.3,29.56,SW,215,3.0,4.0,39,0.00,,,0.00,Wunderground v.1.15,2013-05-19 17:25:00,
2013-05-19 11:34:00,55.8,30.5,29.56,NNW,343,1.0,2.0,38,0.00,,,0.00,Wunderground v.1.15,2013-05-19 17:34:00,
2013-05-19 11:39:00,56.2,29.6,29.56,WSW,247,1.0,4.0,36,0.00,,,0.00,Wunderground v.1.15,2013-05-19 17:39:00,
2013-05-19 11:44:00,56.0,28.0,29.56,West,260,3.0,4.0,34,0.00,,,0.00,Wunderground v.1.15,2013-05-19 17:44:00,
2013-05-19 11:50:00,56.8,29.4,29.56,WSW,252,3.0,3.0,35,0.00,,,0.00,Wunderground v.1.15,2013-05-19 17:50:00,
2013-05-19 11:55:00,57.2,28.3,29.55,West,266,3.0,5.0,33,0.00,,,0.00,Wunderground v.1.15,2013-05-19 17:55:00,
2013-05-19 12:05:00,56.3,26.8,29.55,SSW,211,5.0,7.0,32,0.00,,,0.00,Wunderground v.1.15,2013-05-19 18:05:00,
2013-05-19 12:15:00,55.7,29.8,29.55,SSW,196,3.0,5.0,37,0.00,,,0.00,Wunderground v.1.15,2013-05-19 18:15:00,
2013-05-19 12:25:00,54.3,31.7,29.56,North,360,3.0,3.0,42,0.00,,,0.00,Wunderground v.1.15,2013-05-19 18:25:00,
2013-05-19 12:35:00,53.4,36.7,29.56,NE,44,1.0,2.0,53,0.00,,,0.00,Wunderground v.1.15,2013-05-19 18:35:00,
2013-05-19 12:45:00,53.3,31.4,29.55,NE,47,2.0,3.0,43,0.00,,,0.00,Wunderground v.1.15,2013-05-19 18:45:00,
2013-05-19 12:54:00,52.3,31.6,29.55,NE,48,4.0,4.0,45,0.00,,,0.00,Wunderground v.1.15,2013-05-19 18:54:00,
2013-05-19 13:00:00,52.5,31.8,29.55,NNW,331,3.0,3.0,45,0.00,,,0.00,Wunderground v.1.15,2013-05-19 19:00:00,
2013-05-19 13:10:00,53.6,33.3,29.55,NE,54,2.0,4.0,46,0.00,,,0.00,Wunderground v.1.15,2013-05-19 19:10:00,
2013-05-19 13:15:00,53.9,33.0,29.56,NE,41,3.0,4.0,45,0.00,,,0.00,Wunderground v.1.15,2013-05-19 19:15:00,
2013-05-19 13:20:00,53.7,32.8,29.56,NE,49,3.0,3.0,45,0.00,,,0.00,Wunderground v.1.15,2013-05-19 19:20:00,
2013-05-19 13:29:00,52.2,35.1,29.54,ENE,61,4.0,4.0,52,0.00,,,0.00,Wunderground v.1.15,2013-05-19 19:29:00,
2013-05-19 13:35:00,52.1,34.0,29.54,NE,36,4.0,4.0,50,0.00,,,0.00,Wunderground v.1.15,2013-05-19 19:35:00,
2013-05-19 13:40:00,52.8,35.6,29.55,East,81,3.0,3.0,52,0.00,,,0.00,Wunderground v.1.15,2013-05-19 19:40:00,
2013-05-19 13:50:00,53.7,31.7,29.54,NNE,20,2.0,2.0,43,0.00,,,0.00,Wunderground v.1.15,2013-05-19 19:50:00,
2013-05-19 13:55:00,54.4,32.9,29.54,East,90,2.0,3.0,44,0.00,,,0.00,Wunderground v.1.15,2013-05-19 19:55:00,
2013-05-19 14:05:00,54.8,29.7,29.55,WNW,303,1.0,2.0,38,0.00,,,0.00,Wunderground v.1.15,2013-05-19 20:05:00,
2013-05-19 14:10:00,55.0,32.3,29.55,NNW,346,1.0,2.0,42,0.00,,,0.00,Wunderground v.1.15,2013-05-19 20:10:00,
2013-05-19 14:20:00,56.7,30.0,29.55,WNW,288,1.0,1.0,36,0.00,,,0.00,Wunderground v.1.15,2013-05-19 20:20:00,
2013-05-19 14:30:00,56.5,29.8,29.55,WSW,242,2.0,2.0,36,0.00,,,0.00,Wunderground v.1.15,2013-05-19 20:30:00,
2013-05-19 14:35:00,56.3,28.3,29.55,SE,131,3.0,3.0,34,0.00,,,0.00,Wunderground v.1.15,2013-05-19 20:35:00,
2013-05-19 14:44:00,56.2,28.2,29.55,East,81,2.0,2.0,34,0.00,,,0.00,Wunderground v.1.15,2013-05-19 20:44:00,
2013-05-19 14:49:00,56.1,28.8,29.55,NNW,344,2.0,2.0,35,0.00,,,0.00,Wunderground v.1.15,2013-05-19 20:49:00,
2013-05-19 14:55:00,56.1,29.5,29.55,East,90,2.0,5.0,36,0.00,,,0.00,Wunderground v.1.15,2013-05-19 20:55:00,
2013-05-19 15:05:00,56.1,28.8,29.56,NE,48,2.0,2.0,35,0.00,,,0.00,Wunderground v.1.15,2013-05-19 21:05:00,
2013-05-19 15:15:00,55.7,29.1,29.56,NW,322,1.0,4.0,36,0.00,,,0.00,Wunderground v.1.15,2013-05-19 21:15:00,
2013-05-19 15:20:00,55.7,28.4,29.56,NNW,343,1.0,3.0,35,0.00,,,0.00,Wunderground v.1.15,2013-05-19 21:20:00,
2013-05-19 15:25:00,55.5,30.9,29.57,NE,40,2.0,5.0,39,0.00,,,0.00,Wunderground v.1.15,2013-05-19 21:25:00,
2013-05-19 15:30:00,55.2,29.4,29.57,WSW,238,3.0,3.0,37,0.00,,,0.00,Wunderground v.1.15,2013-05-19 21:30:00,
2013-05-19 15:39:00,55.1,27.9,29.57,SW,236,2.0,4.0,35,0.00,,,0.00,Wunderground v.1.15,2013-05-19 21:39:00,
2013-05-19 15:45:00,55.2,29.4,29.57,ENE,70,2.0,10.0,37,0.00,,,0.00,Wunderground v.1.15,2013-05-19 21:45:00,
2013-05-19 15:50:00,55.3,29.4,29.57,NNW,337,2.0,6.0,37,0.00,,,0.00,Wunderground v.1.15,2013-05-19 21:50:00,
2013-05-19 16:00:00,55.2,28.7,29.58,East,85,3.0,6.0,36,0.00,,,0.00,Wunderground v.1.15,2013-05-19 22:00:00,
2013-05-19 16:10:00,55.5,29.0,29.57,NE,45,2.0,2.0,36,0.00,,,0.00,Wunderground v.1.15,2013-05-19 22:10:00,
2013-05-19 16:19:00,55.8,27.1,29.57,NNW,329,2.0,3.0,33,0.00,,,0.00,Wunderground v.1.15,2013-05-19 22:19:00,
2013-05-19 16:25:00,56.0,27.3,29.57,NE,34,2.0,3.0,33,0.00,,,0.00,Wunderground v.1.15,2013-05-19 22:25:00,
2013-05-19 16:35:00,57.0,27.4,29.57,SW,232,2.0,2.0,32,0.00,,,0.00,Wunderground v.1.15,2013-05-19 22:35:00,
2013-05-19 16:40:00,56.9,26.5,29.58,NW,310,1.0,2.0,31,0.00,,,0.00,Wunderground v.1.15,2013-05-19 22:40:00,
2013-05-19 16:49:00,56.0,25.8,29.58,WNW,291,2.0,2.0,31,0.00,,,0.00,Wunderground v.1.15,2013-05-19 22:49:00,
2013-05-19 17:00:00,54.4,26.6,29.59,WNW,290,5.0,5.0,34,0.00,,,0.00,Wunderground v.1.15,2013-05-19 23:00:00,
2013-05-19 17:10:00,54.1,26.3,29.58,WNW,290,3.0,3.0,34,0.00,,,0.00,Wunderground v.1.15,2013-05-19 23:10:00,
2013-05-19 17:19:00,54.7,26.8,29.58,WNW,301,1.0,1.0,34,0.00,,,0.00,Wunderground v.1.15,2013-05-19 23:19:00,
2013-05-19 17:24:00,55.8,26.3,29.58,SSE,159,1.0,2.0,32,0.00,,,0.00,Wunderground v.1.15,2013-05-19 23:24:00,
2013-05-19 17:35:00,58.6,28.0,29.58,ENE,58,2.0,2.0,31,0.00,,,0.00,Wunderground v.1.15,2013-05-19 23:35:00,
2013-05-19 17:40:00,59.6,27.3,29.58,WSW,253,2.0,5.0,29,0.00,,,0.00,Wunderground v.1.15,2013-05-19 23:40:00,
2013-05-19 17:50:00,60.3,27.0,29.59,NW,309,3.0,3.0,28,0.00,,,0.00,Wunderground v.1.15,2013-05-19 23:50:00,
2013-05-19 17:55:00,60.1,27.7,29.58,WNW,302,3.0,4.0,29,0.00,,,0.00,Wunderground v.1.15,2013-05-19 23:55:00,
2013-05-19 18:05:00,58.6,28.0,29.59,WSW,250,2.0,4.0,31,0.00,,,0.00,Wunderground v.1.15,2013-05-20 00:05:00,
2013-05-19 18:10:00,57.9,26.6,29.59,WSW,257,2.0,2.0,30,0.00,,,0.00,Wunderground v.1.15,2013-05-20 00:10:00,
2013-05-19 18:20:00,56.1,25.8,29.60,WNW,291,3.0,3.0,31,0.00,,,0.00,Wunderground v.1.15,2013-05-20 00:20:00,
2013-05-19 18:29:00,56.3,25.2,29.60,NNW,346,2.0,3.0,30,0.00,,,0.00,Wunderground v.1.15,2013-05-20 00:29:00,
2013-05-19 18:35:00,56.8,25.7,29.61,NW,309,3.0,5.0,30,0.00,,,0.00,Wunderground v.1.15,2013-05-20 00:35:00,
2013-05-19 18:40:00,57.0,26.6,29.61,SW,236,4.0,6.0,31,0.00,,,0.00,Wunderground v.1.15,2013-05-20 00:40:00,
2013-05-19 18:50:00,55.9,25.7,29.61,NW,320,5.0,5.0,31,0.00,,,0.00,Wunderground v.1.15,2013-05-20 00:50:00,
2013-05-19 18:55:00,55.5,26.8,29.61,NE,34,3.0,5.0,33,0.00,,,0.00,Wunderground v.1.15,2013-05-20 00:55:00,
2013-05-19 19:05:00,54.6,26.8,29.62,NE,54,1.0,2.0,34,0.00,,,0.00,Wunderground v.1.15,2013-05-20 01:05:00,
2013-05-19 19:15:00,53.5,31.0,29.62,NNE,19,2.0,4.0,42,0.00,,,0.00,Wunderground v.1.15,2013-05-20 01:15:00,
2013-05-19 19:20:00,52.5,32.3,29.63,NE,50,3.0,4.0,46,0.00,,,0.00,Wunderground v.1.15,2013-05-20 01:20:00,
2013-05-19 19:25:00,51.4,32.3,29.63,ENE,57,3.0,4.0,48,0.00,,,0.00,Wunderground v.1.15,2013-05-20 01:25:00,
2013-05-19 19:30:00,50.7,33.2,29.63,NE,36,3.0,3.0,51,0.00,,,0.00,Wunderground v.1.15,2013-05-20 01:30:00,
2013-05-19 19:39:00,49.6,33.6,29.64,ENE,65,2.0,2.0,54,0.00,,,0.00,Wunderground v.1.15,2013-05-20 01:39:00,
2013-05-19 19:45:00,49.1,33.6,29.64,NE,40,1.0,2.0,55,0.00,,,0.00,Wunderground v.1.15,2013-05-20 01:45:00,
2013-05-19 19:55:00,48.3,33.3,29.64,NE,40,0.0,2.0,56,0.00,,,0.00,Wunderground v.1.15,2013-05-20 01:55:00,
2013-05-19 20:05:00,47.4,33.4,29.65,NE,40,0.0,2.0,58,0.00,,,0.00,Wunderground v.1.15,2013-05-20 02:05:00,
2013-05-19 20:10:00,47.0,33.4,29.65,NE,40,0.0,2.0,59,0.00,,,0.00,Wunderground v.1.15,2013-05-20 02:10:00,
2013-05-19 20:15:00,46.3,33.2,29.65,NE,40,0.0,2.0,60,0.00,,,0.00,Wunderground v.1.15,2013-05-20 02:15:00,
2013-05-19 20:20:00,45.3,33.0,29.65,NE,40,1.0,2.0,62,0.00,,,0.00,Wunderground v.1.15,2013-05-20 02:20:00,
2013-05-19 20:30:00,44.1,33.5,29.66,NE,40,1.0,1.0,66,0.00,,,0.00,Wunderground v.1.15,2013-05-20 02:30:00,
2013-05-19 20:40:00,43.9,33.3,29.66,NE,40,1.0,2.0,66,0.00,,,0.00,Wunderground v.1.15,2013-05-20 02:40:00,
2013-05-19 20:50:00,44.8,33.4,29.67,ENE,61,1.0,2.0,64,0.00,,,0.00,Wunderground v.1.15,2013-05-20 02:50:00,
2013-05-19 21:00:00,45.2,33.7,29.67,ENE,68,1.0,1.0,64,0.00,,,0.00,Wunderground v.1.15,2013-05-20 03:00:00,
2013-05-19 21:10:00,45.0,33.9,29.67,ENE,68,0.0,2.0,65,0.00,,,0.00,Wunderground v.1.15,2013-05-20 03:10:00,
2013-05-19 21:20:00,44.6,34.3,29.68,ENE,69,0.0,2.0,67,0.00,,,0.00,Wunderground v.1.15,2013-05-20 03:20:00,
2013-05-19 21:25:00,44.4,34.5,29.68,ENE,69,0.0,2.0,68,0.00,,,0.00,Wunderground v.1.15,2013-05-20 03:25:00,
2013-05-19 21:35:00,44.0,34.5,29.68,ENE,69,0.0,2.0,69,0.00,,,0.00,Wunderground v.1.15,2013-05-20 03:35:00,
2013-05-19 21:44:00,43.4,34.3,29.69,ENE,69,0.0,2.0,70,0.00,,,0.00,Wunderground v.1.15,2013-05-20 03:44:00,
2013-05-19 21:50:00,43.1,34.0,29.69,ENE,69,0.0,2.0,70,0.00,,,0.00,Wunderground v.1.15,2013-05-20 03:50:00,
2013-05-19 21:55:00,42.6,33.9,29.69,ENE,69,0.0,2.0,71,0.00,,,0.00,Wunderground v.1.15,2013-05-20 03:55:00,
2013-05-19 22:00:00,42.0,33.3,29.69,ENE,69,0.0,2.0,71,0.00,,,0.00,Wunderground v.1.15,2013-05-20 04:00:00,
2013-05-19 22:05:00,41.5,33.5,29.69,ENE,69,0.0,2.0,73,0.00,,,0.00,Wunderground v.1.15,2013-05-20 04:05:00,
2013-05-19 22:15:00,40.7,33.1,29.69,ENE,69,0.0,2.0,74,0.00,,,0.00,Wunderground v.1.15,2013-05-20 04:15:00,
2013-05-19 22:25:00,40.0,32.7,29.70,ENE,69,0.0,2.0,75,0.00,,,0.00,Wunderground v.1.15,2013-05-20 04:25:00,
2013-05-19 22:30:00,39.6,32.3,29.70,ENE,69,1.0,2.0,75,0.00,,,0.00,Wunderground v.1.15,2013-05-20 04:30:00,
2013-05-19 22:40:00,38.8,31.9,29.70,ENE,69,0.0,2.0,76,0.00,,,0.00,Wunderground v.1.15,2013-05-20 04:40:00,
2013-05-19 22:49:00,38.0,31.7,29.70,ENE,69,0.0,2.0,78,0.00,,,0.00,Wunderground v.1.15,2013-05-20 04:49:00,
2013-05-19 22:54:00,37.9,31.7,29.70,ENE,69,0.0,2.0,78,0.00,,,0.00,Wunderground v.1.15,2013-05-20 04:54:00,
2013-05-19 23:00:00,37.7,31.8,29.71,ENE,69,0.0,2.0,79,0.00,,,0.00,Wunderground v.1.15,2013-05-20 05:00:00,
2013-05-19 23:05:00,37.6,32.0,29.71,ENE,69,0.0,2.0,80,0.00,,,0.00,Wunderground v.1.15,2013-05-20 05:05:00,
2013-05-19 23:15:00,37.3,32.0,29.71,ENE,69,0.0,2.0,81,0.00,,,0.00,Wunderground v.1.15,2013-05-20 05:15:00,
2013-05-19 23:25:00,37.2,31.9,29.71,ENE,69,1.0,2.0,81,0.00,,,0.00,Wunderground v.1.15,2013-05-20 05:25:00,
2013-05-19 23:29:00,37.0,31.7,29.71,ENE,69,0.0,2.0,81,0.00,,,0.00,Wunderground v.1.15,2013-05-20 05:29:00,
2013-05-19 23:34:00,36.8,31.8,29.71,ENE,69,1.0,2.0,82,0.00,,,0.00,Wunderground v.1.15,2013-05-20 05:34:00,
2013-05-19 23:40:00,36.6,31.6,29.70,ENE,69,1.0,2.0,82,0.00,,,0.00,Wunderground v.1.15,2013-05-20 05:40:00,
2013-05-19 23:50:00,36.3,31.3,29.70,ENE,69,0.0,2.0,82,0.00,,,0.00,Wunderground v.1.15,2013-05-20 05:50:00,
2013-05-19 23:55:00,36.0,31.0,29.70,ENE,69,0.0,2.0,82,0.00,,,0.00,Wunderground v.1.15,2013-05-20 05:55:00,